Other Surface Observations
Issued by NWS

Home | Current Version | Previous Version | Text Only | Print | Product List | Glossary On
Versions: 1 2 3 4 5 6 7 8 9 10 11 12 13 14 15 16 17 18 19 20 21 22 23 24 25 26 27 28 29 30 31 32 33 34 35 36 37 38 39 40 41 42 43 44 45 46 47 48 49 50
000
SXUS52 KTAE 021718
OSOTAE
OSOTAE
North Florida/South Alabama/Southwest Georgia Weather Roundup
National Weather Service Tallahassee Florida
100 PM EDT TUE JUN 02 2015

Note: "fair" indicates few or no clouds below 12,000 feet with no
significant weather and/or obstructions to visibility.

!FLZ017-115-028-034-025-021800
...North Florida...

CITY           SKY/WX    TMP DP  RH WIND       PRES   REMARKS
TALLAHASSEE    CLOUDY    84  68  58 NW3       30.01S
APALACHICOLA   LGT RAIN  81  71  71 SW8       30.01S
PERRY          CLOUDY    78  72  80 CALM      30.03S
CROSS CITY       N/A     81  72  74 S3        30.02S
JACKSONVILLE   CLOUDY    83  69  62 CALM      30.00F
$$

!FLZ112-006-005-002-011-021800
...Florida Panhandle...

CITY           SKY/WX    TMP DP  RH WIND       PRES   REMARKS
MARIANNA       PTSUNNY   84  71  65 CALM      30.00F
BONIFAY        FAIR      82  68  62 CALM      30.00F
PANAMA CITY NW FAIR      83  68  60 NW3       29.99F
TYNDALL AFB    CLOUDY    81  70  69 N3        30.00S
TYND DRONE APT PTSUNNY   82  72  69 N5        30.00S
DE FUNIAK SPR  FAIR      81  69  66 MISG      30.00F
EGLIN AFB      PTSUNNY   81  71  71 NW5       29.99F
DESTIN         PTSUNNY   83  71  67 S5        29.99F
HURLBURT       MOSUNNY   83  71  66 SE8       29.98F
CRESTVIEW      PTSUNNY   82  70  66 N6        30.01F
PENSACOLA      PTSUNNY   75  73  93 CALM      29.99S
$$

!ALZ063-066-021800
...South Alabama...

CITY           SKY/WX    TMP DP  RH WIND       PRES   REMARKS
DOTHAN         PTSUNNY   80  68  66 CALM      30.04F
OZARK CAIRNS   MOSUNNY   80  68  67 SW3       30.01F
FT RUCKER HELI   N/A     81  66  60 CALM      30.00F
RUCKER HELI 3  FAIR      83  68  61 N2        30.02F
RUCKER HELI 2  FAIR      80  69  69 CALM      30.00F
FLORALA APT    PTSUNNY   81  68  65 CALM      30.02F
ANDALUSIA      MOSUNNY   85  68  56 VRB3      30.00F
TROY           PTSUNNY   81  68  64 CALM      30.02F
EUFALA         CLOUDY    79  69  71 CALM      30.00F
MOBILE         PTSUNNY   84  71  65 N9        30.01F
$$

!GAZ120>161-021800
...Southwest and South Central Georgia...

CITY           SKY/WX    TMP DP  RH WIND       PRES   REMARKS
THOMASVILLE    CLOUDY    82  70  65 SE5       30.02S
BAINBRIDGE     PTSUNNY   86  70  58 S6        30.01F HX  90
MOODY AFB      CLOUDY    83  68  61 VRB2      30.00F
VALDOSTA       CLOUDY    82  70  66 VRB3      30.01F
MOULTRIE       PTSUNNY   82  66  57 CALM      30.02S
BLAKELY        PTSUNNY   82  70  65 CALM      30.01F
ALBANY         PTSUNNY   83  67  58 VRB5      30.02F
TIFTON         FAIR      82  65  56 E3        30.01F
FITZGERALD     FAIR      83  65  53 CALM      30.04F
CORDELE        PTSUNNY   83  67  58 SE3       30.02F
AMERICUS       FAIR      81  66  61 NW3       30.03F
HOMERVILLE     FAIR      82  72  69 NE3       30.02S
$$

!GMZ750-755-770-775-021800
...Coastal and Buoy Obs...

STATION/POSITION TIME  TEMP    WIND        PRES    VSBY  WAVE
                       AIR SEA DIR/SP/G                  HT/PER
                 (UTC) (F)     (DEG/KT/KT) (MB)    (MI)  (FT/S)
KEATON BEACH     1700   78      CALM  /  2 1016.7S
CEDAR KEY        1700   80     210/  5/  5 1016.9F
C TOWER          1700   76      50/ 11/ 12 1016.4S
APALACHICOLA BUO 1650   75 82   30/  6/  8 1017.2F         1/ 3
PANAMA CITY BUOY 1650   76 81  240/ 10/ 12 1016.7F         1/ 6
MOBILE BUOY      1650   80 83  310/  6/  8 1015.7F         1/ 3
ORANGE BCH AL BU 1650   79 81   90/  4/  6 1015.1F         1/ 4
$$



USA.gov is the U.S. government's official web portal to all federal, state and local government web resources and services.